Location: Düngen
(52.0952°N, 10.0219°E)
Time: 15:11:13
(UTC+00:00)

USA 267 - Pass Details

Date: 11 March 2026
Orbit: 1101 x 1107 km, 123.0° (Epoch: 10 January)

Event Time Altitude Azimuth Distance (km) Brightness Sun altitude
Exits shadow 20:25:35 50° 187° (S) 1,384 3.5 -28.2°
Drops below altitude 10° 20:30:39 10° 222° (SW) 2,956 5.5 -28.9°
Sets 20:33:11 0° 226° (SW) 3,910 6.3 -29.2°
